Location: Faggiano
(41.1000°N, 14.5167°E)
Time: 00:07:48
(UTC+00:00)

Daily predictions for brighter satellites

Satellite Brightness Start Highest point End
(mag) Time Altitude Azimuth Time Altitude Azimuth Time Altitude Azimuth
USA 215 4.2 02:43:02 10° E 02:48:57 38° NNE 02:48:57 38° NNE
Cosmos 2082 Rocket 2.4 03:26:14 61° NNE 03:26:50 65° ENE 03:32:23 10° SSE
COSMOS 2406 3.7 03:32:05 47° S 03:32:05 47° S 03:36:06 10° SSE
Cosmos 1072 Rocket 4.3 03:31:26 61° N 03:32:37 87° W 03:38:43 10° S
Cosmos 2344 3.4 03:30:16 42° SW 03:33:11 89° WNW 03:40:50 10° NE
Cosmos 841 Rocket 3.9 03:32:39 52° NNE 03:33:31 60° ENE 03:38:36 10° SSE
Gbstr 26 Del rocket 4.5 03:36:33 27° NE 03:36:33 27° NE 03:39:23 10° E
Gblst 52 Del rocket 4.4 03:37:39 59° SSW 03:38:48 77° SE 03:45:23 10° ENE
Cosmos 1943 Rocket 3.2 03:33:47 10° S 03:39:07 45° ESE 03:44:31 10° NE
CZ-2C R/B 3.9 03:36:06 10° SE 03:41:14 41° ENE 03:46:18 10° N
Cosmos 2278 Rocket 3.6 03:47:01 23° N 03:47:01 23° N 03:49:26 10° N
Envisat 3.8 03:41:18 10° NNE 03:46:14 50° E 03:51:09 10° S
OAO 3 Rocket 4.0 03:47:24 41° S 03:47:33 41° S 03:52:11 10° ESE
NOSS 3-2 (A) 3.2 03:45:45 41° SSW 03:47:48 82° ESE 03:54:03 10° NE
CENTAUR R/B 2.7 03:44:23 17° SSW 03:48:45 66° ESE 03:55:26 10° NE
NOSS 3-2 (C) 4.1 03:47:34 10° S 03:52:43 48° ESE 03:58:35 10° NE
Cosmos 2084 Rocket 4.1 03:55:10 40° NNE 03:55:10 40° NNE 03:57:45 10° NE
BREEZE-M DEB (TANK) 4.0 03:57:32 44° W 03:59:17 64° SW 04:03:29 10° SE
Cosmos 1833 Rocket 4.2 04:03:34 21° SW 04:03:34 21° SW 04:05:49 10° SSW
MOS 1-B Rocket 4.1 03:55:06 10° SSE 04:01:53 85° ENE 04:07:50 10° NNW
Cosmos 1782 4.2 04:02:05 10° N 04:05:49 38° ENE 04:09:30 10° SSE
COSMOS 2455 3.6 04:06:58 32° WSW 04:06:58 32° WSW 04:11:31 10° S
Cosmos 1900 4.3 04:07:27 53° WNW 04:08:21 65° WSW 04:13:20 10° SSE
COSMO-SKYMED 1 2.8 04:05:31 10° SSE 04:09:49 69° ENE 04:13:32 14° N
Landsat 5 4.3 04:06:45 10° SSE 04:11:08 56° ENE 04:15:34 10° N
Cosmos 1867 4.3 04:10:06 19° NNW 04:13:53 52° NE 04:19:11 10° SE
FALCON 9 DEB 3.5 04:18:06 45° NE 04:18:06 45° NE 04:20:15 10° NE
YAOGAN 6 2.5 04:14:11 10° N 04:17:50 64° WNW 04:21:27 10° SSW
SAR-Lupe-3 4.4 04:14:31 10° NNE 04:18:07 89° WNW 04:21:42 10° SSW
Cosmos 1814 Rocket 3.8 04:16:02 20° NNW 04:19:37 88° WSW 04:24:44 10° SSE
Meteor 1-31 Rocket 2.7 04:16:06 10° NNE 04:20:00 85° ESE 04:23:53 10° SSW
Helios 1B 4.4 04:16:19 10° SSE 04:20:39 82° WSW 04:23:55 17° NNW
USA 238 DEB 3.5 04:14:16 10° SSW 04:20:43 89° ESE 04:27:32 10° NE
USA 238 3.6 04:14:23 10° SSW 04:20:49 88° SE 04:27:38 10° NE
Cosmos 1812 4.4 04:18:44 10° N 04:22:15 33° ENE 04:25:45 10° SE
Cosmos 2208 Rocket 4.3 04:19:49 10° NNW 04:25:15 73° ENE 04:30:37 10° SSE
Cosmos 1464 Rocket 4.5 04:22:42 23° NW 04:25:52 36° W 04:31:27 10° SSW
Cosmos 1933 3.2 04:23:57 23° NNW 04:26:23 72° W 04:30:22 10° S
Hubble Space Telescope 3.2 04:25:06 11° SSW 04:27:03 14° S 04:29:12 10° SSE
FALCON 9 DEB 3.7 04:30:00 33° N 04:30:00 33° N 04:32:01 10° NE
USA 215 3.2 04:25:05 10° SE 04:31:36 77° SW 04:36:18 21° NW
SWAS 4.3 04:27:53 10° SSW 04:32:11 76° WNW 04:36:31 10° NNE
FALCON 9 DEB 3.9 04:34:35 28° N 04:34:35 28° N 04:36:34 10° NE
Cosmos 2369 Rocket 2.7 04:32:30 10° S 04:37:58 61° ESE 04:43:30 10° NNE
FALCON 9 DEB 2.9 04:41:15 45° WNW 04:41:32 47° NW 04:44:22 10° NE
CZ-4B R/B 4.2 04:37:28 10° N 04:41:46 53° WNW 04:46:07 10° SSW
Cosmos 540 Rocket 4.5 04:42:04 23° W 04:42:34 24° W 04:46:36 10° SSW
H-2A R/B 3.6 04:49:06 10° NNW 04:52:13 26° WNW 04:55:20 10° SW
Cosmos 1486 Rocket 4.2 04:47:19 10° SSW 04:52:37 77° ESE 04:57:56 10° NNE
Cosmos 1939 Rocket 4.1 04:50:51 10° NNE 04:54:39 44° E 04:58:22 10° S
Cosmos 2151 3.9 04:54:04 10° SW 04:57:38 26° WNW 05:01:16 10° NNW
SKYMED 2 4.2 04:54:01 10° SSW 04:57:58 34° W 05:01:55 10° NNW
APEX 2.8 04:58:13 22° NW 04:59:43 46° WSW 05:02:44 10° S
Meteor PRIRODA 3.5 04:57:51 10° N 05:01:29 85° WNW 05:05:05 10° SSW
Aureole 1 Rocket 3.0 04:58:50 10° SW 05:01:33 26° WNW 05:04:09 10° N
CZ-4C R/B 3.3 05:03:43 10° SSW 05:06:42 36° W 05:09:38 10° NNW
SJ 16-02 4.4 05:03:55 10° SE 05:06:56 18° E 05:09:58 10° NE
Okean 3 Rocket 3.6 05:02:35 10° S 05:07:06 84° W 05:11:40 10° N
CZ-2C R/B 2.9 05:03:27 10° N 05:08:17 84° WNW 05:13:16 10° SSW
Cosmos 2082 Rocket 3.6 05:08:09 14° WNW 05:10:16 17° W 05:13:43 10° SW
Meteor 2-3 Rocket 4.5 05:08:57 10° SW 05:13:47 29° WNW 05:18:42 10° NNW
Geosat FO 4.5 05:10:55 10° SSE 05:14:16 61° WSW 05:17:33 10° NNW
FALCON 9 DEB 3.4 05:11:02 10° WSW 05:14:18 45° NNW 05:17:35 10° NE
Cosmos 2297 4.4 05:09:29 10° WSW 05:14:34 32° WNW 05:19:40 10° N
Meteor 2-6 Rocket 4.1 05:09:20 10° N 05:14:48 84° W 05:20:10 10° S
ADEOS 3.8 05:09:56 10° N 05:14:56 48° WNW 05:19:55 10° SW
CZ-2C R/B 3.7 05:16:59 10° SSW 05:21:36 27° W 05:26:10 10° NW
Gbstr 26 Del rocket 3.3 05:19:04 12° WNW 05:22:38 51° SW 05:27:04 10° SE
Cosmos 1943 Rocket 3.1 05:18:17 10° WSW 05:23:03 27° NW 05:27:52 10° N
Cosmos 2098 Rocket 3.4 05:21:45 10° SW 05:24:51 31° WNW 05:28:33 10° N
Envisat 4.2 05:21:13 10° NNW 05:24:53 20° WNW 05:28:31 10° WSW
Cosmos 2279 Rocket 4.0 05:19:24 10° NNW 05:25:30 61° W 05:31:33 10° S
Cosmos 1656 Rocket 3.5 05:20:32 10° SSW 05:25:56 75° WNW 05:31:23 10° NNE
H-2A R/B 2.0 05:22:17 10° S 05:26:27 74° WSW 05:30:45 10° NNW
NOAA 11 4.5 05:22:03 10° N 05:27:13 45° WNW 05:32:24 10° SW
BREEZE M DEB (TANK) 4.0 05:26:32 10° NW 05:29:14 18° N 05:30:58 10° NE
CZ-4B R/B 3.1 05:30:12 10° N 05:33:31 35° WNW 05:36:47 10° SW
Nadezhda 4 Rocket 4.1 05:27:35 10° S 05:33:42 85° E 05:39:55 10° N
Cosmos 1766 Rocket 4.1 05:29:55 10° SW 05:33:57 36° WNW 05:37:59 10° N
CORIOLIS 4.4 05:29:10 10° NNE 05:34:38 80° ESE 05:40:05 10° S
CZ-4B R/B 1.5 05:35:36 10° SSE 05:38:57 80° ENE 05:42:18 10° N
CENTAUR R/B 3.5 05:34:52 10° W 05:40:03 28° NW 05:46:05 10° NNE
Cosmos 1354 Rocket 4.0 05:36:29 10° SSW 05:41:45 82° WNW 05:47:04 10° NNE
